User: anonymous   Login
Location: Unspecified
(0.0000°N, 0.0000°E)
Time: 10:52:09
(UTC+00:00)
Language:

SKYMED 2 - Orbit

View from above orbital plane
View from above orbital plane
View from above satellite
View from above satellite

Ground track
Ground track

The orbit data is extracted from the following two-line orbital elements,

1 32376U 07059A   18201.11477235  .00000273  00000-0  40816-4 0  9999
2 32376  97.8897  24.2213 0001443  85.9307 274.2097 14.82156266574131
Epoch (UTC): 20 July 2018 02:45:16
Eccentricity: 0.0001443
inclination: 97.8897°
perigee height: 621 km
apogee height: 623 km
right ascension of ascending node: 24.2213°
argument of perigee: 85.9307°
revolutions per day: 14.82156266
mean anomaly at epoch: 274.2097°
orbit number at epoch: 57413

The dashed part of the orbit path shows where the satellite is in the earth's shadow,  

DLR